Location: Domont
(49.0278°N, 2.3264°E)
Time: 12:07:02
(UTC+00:00)

Orbus 7S? - Visible Passes

Search period start: 29 May 2022 00:00
Search period end: 08 June 2022 00:00
Orbit: 340 x 6382 km, 56.9° (Epoch: 11 April)

Date Brightness Start Highest point End Pass type
(mag) Time Alt. Az. Time Alt. Az. Time Alt. Az.
29 May 7.3 00:35:12 14° SW 00:48:08 87° SE 01:24:11 10° ENE visible
29 May 6.9 21:49:47 18° SSE 21:58:02 33° E 22:19:43 10° NE visible
30 May 7.3 00:29:07 12° SW 00:42:25 88° SE 01:18:28 10° ENE visible
30 May 6.9 21:43:39 17° SSE 21:52:05 34° E 22:13:58 10° NE visible
31 May 7.3 00:23:05 10° SW 00:36:42 89° SE 01:12:45 10° ENE visible
31 May 8.1 03:10:03 10° W 03:32:03 72° N 04:14:45 10° E visible
31 May 6.9 21:37:26 16° SSE 21:46:09 35° E 22:08:12 10° NE visible
01 Jun 7.3 00:17:23 10° SW 00:30:59 90° NNW 01:07:02 10° ENE visible
01 Jun 8.1 03:04:24 10° W 03:26:24 73° N 04:09:06 10° E visible
01 Jun 6.9 21:31:07 14° SSE 21:40:13 36° E 22:02:26 10° NE visible
02 Jun 7.3 00:11:40 10° SW 00:25:15 89° NW 01:01:18 10° ENE visible
02 Jun 8.1 02:58:44 10° W 03:20:46 73° N 04:03:27 10° E visible
02 Jun 7.0 21:24:45 12° SSE 21:34:16 37° ESE 21:56:38 10° NE visible
03 Jun 7.3 00:05:57 10° SW 00:19:31 88° NW 00:55:34 10° ENE visible
03 Jun 8.2 02:53:03 10° W 03:15:07 73° N 03:57:47 10° E visible
03 Jun 7.0 21:18:19 10° SSE 21:28:18 38° ESE 21:50:50 10° NE visible
04 Jun 7.3 00:00:14 10° WSW 00:13:46 87° NNW 00:49:49 10° ENE visible
04 Jun 8.2 02:47:21 10° W 03:09:26 73° N 03:52:06 10° E visible
04 Jun 7.0 21:12:26 10° SSE 21:22:21 39° ESE 21:45:01 10° NE visible
04 Jun 7.3 23:54:30 10° WSW 00:08:01 86° NNW 00:44:03 10° ENE visible
05 Jun 8.2 02:41:40 10° WNW 03:03:45 73° N 03:46:25 10° E visible
05 Jun 7.0 21:06:32 10° S 21:16:23 40° ESE 21:39:11 10° NE visible
05 Jun 7.3 23:48:45 10° WSW 00:02:16 85° NNW 00:38:17 10° ENE visible
06 Jun 8.2 02:35:57 10° WNW 02:58:03 73° N 03:40:42 10° E visible
06 Jun 7.0 21:00:38 10° S 21:10:25 41° ESE 21:33:21 10° NE visible
06 Jun 7.4 23:43:00 10° WSW 23:56:30 84° NNW 00:32:30 10° ENE visible
07 Jun 8.2 02:30:14 10° WNW 02:52:21 73° NNE 03:34:59 10° ESE visible
07 Jun 7.0 20:54:44 10° S 21:04:27 42° ESE 21:27:29 10° NE visible
